GW4795 Weather Reports


time (UTC)temp
F
wind
direction
speed
knots
gust
knots
rain 1hr
in
rain 24hr
in
rain mn
in
humidity
%
barometer
mb
20260901225016 68 86 0.9 6.1 0.00 0.00 0.00 68 1010.0
20260901224530 68 141 1.7 8.7 0.00 0.00 0.00 68 1010.0
20260901224015 68 133 3.5 8.7 0.00 0.00 0.00 68 1009.9
20260901223513 68 134 1.7 7.8 0.00 0.00 0.00 68 1009.9
20260901223031 68 136 0.9 10.4 0.00 0.00 0.00 68 1009.9
20260901222515 68 118 1.7 10.4 0.00 0.00 0.00 67 1009.9
20260901222008 68 158 3.5 9.6 0.00 0.00 0.00 67 1010.0
20260901221520 68 146 0.9 7.8 0.00 0.00 0.00 67 1009.9
20260901221010 68 80 1.7 7.8 0.00 0.00 0.00 67 1009.9
20260901220509 69 60 2.6 6.1 0.00 0.00 0.00 67 1009.9
20260901220036 69 136 2.6 6.1 0.00 0.00 0.00 67 1009.9
20260901215514 69 139 1.7 7.8 0.00 0.00 0.00 67 1009.9
20260901215014 69 115 1.7 7.8 0.00 0.00 0.00 68 1009.9
20260901214528 68 95 1.7 6.1 0.00 0.00 0.00 68 1009.9
20260901214015 69 129 0.9 6.1 0.00 0.00 0.00 68 1009.9
20260901213513 69 128 1.7 7.0 0.00 0.00 0.00 67 1009.9
20260901213032 69 110 1.7 7.8 0.00 0.00 0.00 67 1009.9
20260901212514 69 48 2.6 8.7 0.00 0.00 0.00 67 1009.9
20260901212015 69 90 1.7 8.7 0.00 0.00 0.00 67 1010.0
20260901211536 69 86 1.7 7.0 0.00 0.00 0.00 66 1009.9
20260901211019 69 92 0.9 7.0 0.00 0.00 0.00 66 1010.0
20260901210512 69 70 2.6 5.2 0.00 0.00 0.00 65 1010.1
20260901210022 69 104 1.7 6.1 0.00 0.00 0.00 64 1010.1
20260901205516 69 144 0.9 6.1 0.00 0.00 0.00 65 1010.2
20260901205014 69 107 1.7 7.8 0.00 0.00 0.00 66 1010.2
20260901204527 69 74 4.3 7.8 0.00 0.00 0.00 65 1010.2
20260901204014 69 119 1.7 6.1 0.00 0.00 0.00 66 1010.3
20260901203515 69 69 1.7 5.2 0.00 0.00 0.00 67 1010.3
20260901203036 69 106 1.7 5.2 0.00 0.00 0.00 66 1010.3
20260901202515 69 118 2.6 5.2 0.00 0.00 0.00 67 1010.4
20260901202004 68 146 1.7 6.1 0.00 0.00 0.00 68 1010.3
20260901201514 68 148 0.9 6.1 0.00 0.00 0.00 68 1010.5
20260901201006 68 130 2.6 6.1 0.00 0.00 0.00 67 1010.6
20260901200510 68 34 1.7 5.2 0.00 0.00 0.00 69 1010.7
20260901200023 68 140 2.6 4.3 0.00 0.00 0.00 69 1010.7
20260901195512 68 137 1.7 3.5 0.00 0.00 0.00 69 1010.8
20260901195016 68 80 0.9 3.5 0.00 0.00 0.00 69 1010.7
20260901194526 68 104 0.9 7.0 0.00 0.00 0.00 70 1010.6
20260901194015 68 98 1.7 7.0 0.00 0.00 0.00 69 1010.7
20260901193513 68 118 1.7 7.0 0.00 0.00 0.00 70 1010.7
20260901193031 67 50 1.7 7.0 0.00 0.00 0.00 70 1010.7
20260901192514 67 136 2.6 7.0 0.00 0.00 0.00 71 1010.8
20260901192016 66 160 0.9 6.1 0.00 0.00 0.00 73 1010.7
20260901191530 66 176 0.9 6.1 0.00 0.00 0.00 73 1010.8
20260901191007 65 130 2.6 6.1 0.00 0.00 0.00 74 1010.9
20260901190509 65 140 1.7 6.1 0.00 0.00 0.00 75 1010.9
20260901190023 64 178 1.7 5.2 0.00 0.00 0.00 75 1010.9
20260901185517 64 127 1.7 5.2 0.00 0.00 0.00 76 1011.0
20260901185013 64 68 0.9 8.7 0.00 0.00 0.00 76 1011.0
20260901184527 64 119 1.7 8.7 0.00 0.00 0.00 76 1011.0
20260901184014 64 128 0.9 7.0 0.00 0.00 0.00 76 1011.0
20260901183515 64 136 2.6 7.0 0.00 0.00 0.00 76 1011.0
20260901183029 64 109 1.7 6.1 0.00 0.00 0.00 77 1011.0
20260901182514 63 157 0.9 4.3 0.00 0.00 0.00 76 1010.9
20260901182014 64 119 0.9 7.0 0.00 0.00 0.00 77 1010.9
20260901181535 64 121 0.9 7.8 0.00 0.00 0.00 77 1010.9
20260901181017 64 197 1.7 7.8 0.00 0.00 0.00 76 1010.9
20260901180519 64 183 1.7 6.1 0.00 0.00 0.00 76 1010.9
20260901180034 65 122 1.7 7.8 0.00 0.00 0.00 75 1010.8
20260901175509 64 132 1.7 8.7 0.00 0.00 0.00 75 1010.7
20260901175011 65 207 3.5 8.7 0.00 0.00 0.00 75 1010.6
20260901174526 64 174 0.9 6.1 0.00 0.00 0.00 77 1010.5
20260901174011 64 165 1.7 7.8 0.00 0.00 0.00 78 1010.6
20260901173504 63 163 2.6 7.8 0.00 0.00 0.00 78 1010.5
20260901173005 63 198 2.6 7.8 0.00 0.00 0.00 79 1010.6
20260901172504 63 201 1.7 5.2 0.00 0.00 0.00 81 1010.6
20260901172004 62 173 1.7 5.2 0.00 0.00 0.00 82 1010.6
20260901171515 62 117 0.9 3.5 0.00 0.00 0.00 83 1010.6
20260901171005 61 159 0.9 2.6 0.00 0.00 0.00 83 1010.5
20260901170507 61 69 0.9 2.6 0.00 0.00 0.00 84 1010.5
20260901170046 61 50 0.0 2.6 0.00 0.00 0.00 85 1010.4
20260901165507 61 64 0.0 2.6 0.00 0.00 0.00 85 1010.5
20260901165010 60 146 0.9 3.5 0.00 0.00 0.00 85 1010.6
20260901164523 60 93 1.7 3.5 0.00 0.00 0.00 87 1010.6
20260901164011 59 22 0.0 2.6 0.00 0.00 0.00 87 1010.6
20260901163514 59 54 0.9 2.6 0.00 0.00 0.00 87 1010.6
20260901163005 59 92 0.0 2.6 0.00 0.00 0.00 87 1010.7
20260901162517 59 98 0.9 3.5 0.00 0.00 0.00 87 1010.7
20260901162002 59 66 1.7 3.5 0.00 0.00 0.00 88 1010.7
20260901161508 58 141 1.7 3.5 0.00 0.00 0.00 88 1010.8
20260901161005 58 75 0.0 3.5 0.00 0.00 0.00 89 1010.8
20260901160506 58 80 0.0 2.6 0.00 0.00 0.00 90 1010.9
20260901160013 58 61 0.9 1.7 0.00 0.00 0.00 89 1010.9
20260901155506 57 71 0.9 1.7 0.00 0.00 0.00 89 1010.9
20260901155007 57 72 0.0 1.7 0.00 0.00 0.00 90 1010.9
20260901154516 57 119 0.9 1.7 0.00 0.00 0.00 90 1010.9
20260901154014 57 123 0.0 2.6 0.00 0.00 0.00 91 1010.8
20260901153512 56 130 0.9 2.6 0.00 0.00 0.00 91 1010.9
20260901153024 56 80 0.0 2.6 0.00 0.00 0.00 92 1010.9
20260901152513 55 128 0.9 1.7 0.00 0.00 0.00 92 1011.0
20260901152016 55 119 0.0 1.7 0.00 0.00 0.00 92 1010.9
20260901151510 55 130 0.0 1.7 0.00 0.00 0.00 92 1010.9
20260901151003 55 68 0.0 1.7 0.00 0.00 0.00 92 1010.9
20260901150502 54 85 0.0 1.7 0.00 0.00 0.00 92 1010.8
20260901150009 54 107 0.0 1.7 0.00 0.00 0.00 93 1010.8
20260901145506 54 96 0.0 1.7 0.00 0.00 0.00 93 1010.7
20260901145010 54 87 0.0 1.7 0.00 0.00 0.00 93 1010.6
20260901144516 54 88 0.9 1.7 0.00 0.00 0.00 93 1010.6
20260901144008 54 68 0.0 1.7 0.00 0.00 0.00 93 1010.5
20260901143510 53 68 0.0 1.7 0.00 0.00 0.00 93 1010.4
20260901143024 53 68 0.0 1.7 0.00 0.00 0.00 93 1010.5
20260901142512 53 53 0.0 1.7 0.00 0.00 0.00 93 1010.4
20260901142010 53 69 0.0 1.7 0.00 0.00 0.00 93 1010.4
20260901141528 53 51 0.0 1.7 0.00 0.00 0.00 92 1010.5
20260901141011 52 51 0.0 1.7 0.00 0.00 0.00 92 1010.4
20260901140517 52 36 0.0 1.7 0.00 0.00 0.00 92 1010.3
20260901140011 52 35 0.0 1.7 0.00 0.00 0.00 92 1010.3
20260901135503 52 92 0.0 1.7 0.00 0.00 0.00 92 1010.2
20260901135007 52 92 0.0 1.7 0.00 0.00 0.00 92 1010.2
20260901134514 52 92 0.0 1.7 0.00 0.00 0.00 92 1010.2
20260901134009 52 92 0.0 1.7 0.00 0.00 0.00 92 1010.2
20260901133508 52 126 0.0 1.7 0.00 0.00 0.00 92 1010.1
20260901133020 52 126 0.0 1.7 0.00 0.00 0.00 92 1010.0
20260901132512 52 126 0.0 0.9 0.00 0.00 0.00 92 1010.0
20260901132012 52 126 0.0 1.7 0.00 0.00 0.00 92 1010.0
20260901131539 52 126 0.0 1.7 0.00 0.00 0.00 92 1010.0
20260901131012 52 72 0.0 1.7 0.00 0.00 0.00 92 1009.9
20260901130516 52 84 0.0 1.7 0.00 0.00 0.00 92 1009.9
20260901130029 52 68 0.0 2.6 0.00 0.00 0.00 92 1009.9
20260901125513 52 76 0.0 2.6 0.00 0.00 0.00 91 1009.8
20260901125015 52 99 0.9 2.6 0.00 0.00 0.00 91 1009.9
20260901124513 52 78 0.0 2.6 0.00 0.00 0.00 91 1009.8
20260901124006 52 54 0.0 1.7 0.00 0.00 0.00 91 1009.7
20260901123511 52 349 0.0 0.0 0.00 0.00 0.00 90 1009.6
20260901123028 52 349 0.0 0.0 0.00 0.00 0.00 90 1009.5
20260901122508 52 349 0.0 0.0 0.00 0.00 0.00 90 1009.5
20260901122012 52 349 0.0 0.0 0.00 0.00 0.00 90 1009.6
20260901121525 52 349 0.0 0.0 0.00 0.00 0.00 90 1009.6
20260901121012 52 349 0.0 0.0 0.00 0.00 0.00 90 1009.5
20260901120513 52 349 0.0 0.0 0.00 0.00 0.00 90 1009.5
20260901120028 52 349 0.0 0.0 0.00 0.00 0.00 90 1009.5
20260901115515 52 349 0.0 0.0 0.00 0.00 0.00 89 1009.5
20260901115013 52 349 0.0 0.0 0.00 0.00 0.00 89 1009.5
20260901114539 52 349 0.0 1.7 0.00 0.00 0.00 89 1009.5
20260901114014 52 349 0.0 1.7 0.00 0.00 0.00 89 1009.5
20260901113504 53 349 0.0 0.0 0.00 0.00 0.00 89 1009.6
20260901113019 53 349 0.0 0.0 0.00 0.00 0.00 89 1009.6
20260901112506 53 349 0.0 0.0 0.00 0.00 0.00 89 1009.7
20260901112008 53 349 0.0 0.0 0.00 0.00 0.00 89 1009.7
20260901111520 53 349 0.0 0.0 0.00 0.00 0.00 89 1009.7
20260901111010 53 349 0.0 0.0 0.00 0.00 0.00 89 1009.7
20260901110512 53 349 0.0 0.0 0.00 0.00 0.00 89 1009.7
20260901110025 53 349 0.0 0.0 0.00 0.00 0.00 88 1009.7
20260901105513 53 349 0.0 1.7 0.00 0.00 0.00 88 1009.7
20260901105012 53 349 0.0 1.7 0.00 0.00 0.00 88 1009.6
20260901104530 53 349 0.0 1.7 0.00 0.00 0.00 88 1009.7
20260901104018 53 349 0.0 1.7 0.00 0.00 0.00 88 1009.8
20260901103518 53 349 0.0 0.0 0.00 0.00 0.00 88 1009.8
20260901103032 53 349 0.0 1.7 0.00 0.00 0.00 88 1009.8
20260901102516 53 349 0.0 1.7 0.00 0.00 0.00 88 1009.7
20260901102008 54 349 0.0 1.7 0.00 0.00 0.00 88 1009.7
20260901101517 54 349 0.0 1.7 0.00 0.00 0.00 88 1009.7
20260901101007 54 349 0.0 1.7 0.00 0.00 0.00 87 1009.7
20260901100512 54 349 0.0 1.7 0.00 0.00 0.00 87 1009.7
20260901100024 54 349 0.0 0.0 0.00 0.00 0.00 87 1009.7
20260901095512 54 349 0.0 1.7 0.00 0.00 0.00 87 1009.6
20260901095015 54 349 0.0 1.7 0.00 0.00 0.00 87 1009.6
20260901094533 54 349 0.0 1.7 0.00 0.00 0.00 87 1009.6
20260901094016 54 349 0.0 0.0 0.00 0.00 0.00 86 1009.6
20260901093514 54 349 0.0 0.0 0.00 0.00 0.00 86 1009.6
20260901093033 54 349 0.0 0.0 0.00 0.00 0.00 86 1009.7
20260901092515 54 349 0.0 0.0 0.00 0.00 0.00 86 1009.6
20260901092017 55 349 0.0 0.0 0.00 0.00 0.00 86 1009.6
20260901091534 55 349 0.0 0.0 0.00 0.00 0.00 86 1009.5
20260901091017 55 349 0.0 1.7 0.00 0.00 0.00 86 1009.5
20260901090510 55 349 0.0 1.7 0.00 0.00 0.00 86 1009.5
20260901090024 55 349 0.0 0.0 0.00 0.00 0.00 86 1009.5
20260901085512 55 349 0.0 0.0 0.00 0.00 0.00 86 1009.4
20260901085014 55 349 0.0 0.0 0.00 0.00 0.00 86 1009.4
20260901084544 56 349 0.0 1.7 0.00 0.00 0.00 86 1009.3
20260901084015 56 349 0.0 1.7 0.00 0.00 0.00 86 1009.3
20260901083504 56 349 0.0 1.7 0.00 0.00 0.00 86 1009.4
20260901083005 56 349 0.0 1.7 0.00 0.00 0.00 85 1009.3
20260901082505 56 349 0.0 0.0 0.00 0.00 0.00 85 1009.3
20260901082005 56 349 0.0 0.0 0.00 0.00 0.00 85 1009.4
20260901081511 56 349 0.0 0.0 0.00 0.00 0.00 85 1009.4
20260901081008 56 349 0.0 0.9 0.00 0.00 0.00 85 1009.4
20260901080506 56 349 0.0 1.7 0.00 0.00 0.00 85 1009.3
20260901080025 57 349 0.0 1.7 0.00 0.00 0.00 85 1009.3
20260901075512 57 352 0.0 1.7 0.00 0.00 0.00 85 1009.2
20260901075012 57 352 0.0 1.7 0.00 0.00 0.00 85 1009.2
20260901074524 57 352 0.0 1.7 0.00 0.00 0.00 85 1009.2
20260901074017 57 348 0.0 1.7 0.00 0.00 0.00 84 1009.2
20260901073503 57 340 0.0 0.0 0.00 0.00 0.00 84 1009.2
20260901073005 57 340 0.0 0.0 0.00 0.00 0.00 84 1009.2
20260901072508 58 340 0.0 1.7 0.00 0.00 0.00 83 1009.2
20260901072005 58 340 0.0 1.7 0.00 0.00 0.00 83 1009.2
20260901071511 58 340 0.0 1.7 0.00 0.00 0.00 83 1009.2
20260901071006 58 340 0.0 1.7 0.00 0.00 0.00 82 1009.2
20260901070506 58 340 0.0 1.7 0.00 0.00 0.00 82 1009.1
20260901070015 58 350 0.0 1.7 0.00 0.00 0.00 81 1009.1
20260901065510 58 350 0.0 1.7 0.00 0.00 0.00 81 1009.2
20260901065008 58 350 0.0 1.7 0.00 0.00 0.00 81 1009.2
20260901064524 59 352 0.0 1.7 0.00 0.00 0.00 81 1009.2
20260901064013 59 352 0.0 1.7 0.00 0.00 0.00 81 1009.2
20260901063512 59 352 0.0 1.7 0.00 0.00 0.00 81 1009.3
20260901063031 59 352 0.0 1.7 0.00 0.00 0.00 80 1009.3
20260901062504 59 333 0.0 1.7 0.00 0.00 0.00 79 1009.3
20260901062004 60 333 0.0 1.7 0.00 0.00 0.00 79 1009.3
20260901061511 60 333 0.0 1.7 0.00 0.00 0.00 79 1009.3
20260901061004 60 333 0.0 0.0 0.00 0.00 0.00 79 1009.3
20260901060509 60 333 0.0 0.0 0.00 0.00 0.00 78 1009.3
20260901060016 60 333 0.0 1.7 0.00 0.00 0.00 78 1009.3
20260901055506 61 333 0.0 1.7 0.00 0.00 0.00 77 1009.4
20260901055006 61 333 0.0 1.7 0.00 0.00 0.00 78 1009.4
20260901054519 61 329 0.0 1.7 0.00 0.00 0.00 78 1009.4
20260901054012 61 302 0.0 1.7 0.00 0.00 0.00 77 1009.5
20260901053510 61 302 0.0 1.7 0.00 0.00 0.00 76 1009.6
20260901053027 61 302 0.0 0.9 0.00 0.00 0.00 76 1009.6
20260901052512 61 339 0.0 1.7 0.00 0.00 0.00 75 1009.6
20260901052016 62 346 0.9 1.7 0.00 0.00 0.00 75 1009.6
20260901051530 62 336 0.0 0.0 0.00 0.00 0.00 75 1009.6
20260901051006 62 336 0.0 0.0 0.00 0.00 0.00 75 1009.6
20260901050506 62 336 0.0 0.0 0.00 0.00 0.00 75 1009.6
20260901050013 62 336 0.0 1.7 0.00 0.00 0.00 75 1009.6
20260901045508 62 336 0.0 1.7 0.00 0.00 0.00 74 1009.5
20260901045008 63 336 0.0 1.7 0.00 0.00 0.00 74 1009.5
20260901044527 63 336 0.0 1.7 0.00 0.00 0.00 72 1009.5
20260901044008 63 336 0.0 1.7 0.00 0.00 0.00 72 1009.5
20260901043511 63 336 0.0 1.7 0.00 0.00 0.00 71 1009.5
20260901043027 63 336 0.0 1.7 0.00 0.00 0.00 71 1009.6
20260901042511 63 336 0.0 0.9 0.00 0.00 0.00 71 1009.6
20260901042015 63 336 0.0 1.7 0.00 0.00 0.00 70 1009.5
20260901041535 64 336 0.0 1.7 0.00 0.00 0.00 70 1009.5
20260901041016 64 299 0.9 1.7 0.00 0.00 0.00 70 1009.5
20260901040515 64 319 0.0 1.7 0.00 0.00 0.00 69 1009.5
20260901040033 64 312 0.9 1.7 0.00 0.00 0.00 69 1009.5
20260901035507 64 290 0.0 1.7 0.00 0.00 0.00 69 1009.5
20260901035008 64 306 0.9 1.7 0.00 0.00 0.00 69 1009.3
20260901034529 64 281 0.9 2.6 0.00 0.00 0.00 68 1009.3
20260901034011 65 315 0.9 2.6 0.00 0.00 0.00 68 1009.3
20260901033508 65 294 1.7 2.6 0.00 0.00 0.00 68 1009.2
20260901033020 65 284 0.9 3.5 0.00 0.00 0.00 68 1009.1
20260901032510 65 288 0.9 3.5 0.00 0.00 0.00 67 1009.1
20260901032012 65 245 0.9 5.2 0.00 0.00 0.00 67 1009.0
20260901031535 65 294 0.9 6.1 0.00 0.00 0.00 67 1009.0
20260901031011 66 278 1.7 6.1 0.00 0.00 0.00 66 1009.0
20260901030514 66 310 0.9 5.2 0.00 0.00 0.00 66 1008.9
20260901030032 66 277 1.7 7.0 0.00 0.00 0.00 66 1008.9
20260901025516 66 294 0.9 7.0 0.00 0.00 0.00 66 1009.0
20260901025014 66 287 1.7 7.0 0.00 0.00 0.00 65 1008.9
20260901024513 67 239 1.7 5.2 0.00 0.00 0.00 65 1008.9
20260901024009 67 251 0.9 6.1 0.00 0.00 0.00 65 1008.9
20260901023509 67 242 1.7 7.8 0.00 0.00 0.00 65 1008.9
20260901023020 67 290 2.6 7.8 0.00 0.00 0.00 64 1008.9
20260901022512 68 229 1.7 6.1 0.00 0.00 0.00 63 1009.0
20260901022010 68 249 1.7 7.0 0.00 0.00 0.00 63 1008.9
20260901021525 68 288 2.6 7.0 0.00 0.00 0.00 63 1008.9
20260901021012 69 311 1.7 8.7 0.00 0.00 0.00 63 1009.0
20260901020512 69 264 1.7 8.7 0.00 0.00 0.00 63 1009.0
20260901020028 69 284 0.9 7.8 0.00 0.00 0.00 62 1009.0
20260901015520 69 250 3.5 7.8 0.00 0.00 0.00 62 1009.0
20260901015016 69 263 3.5 6.1 0.00 0.00 0.00 62 1008.9
20260901014533 69 312 1.7 7.0 0.00 0.00 0.00 62 1009.0
20260901014017 69 263 1.7 7.0 0.00 0.00 0.00 63 1009.0
20260901013517 69 302 2.6 7.0 0.00 0.00 0.00 63 1008.9
20260901013016 69 286 2.6 7.0 0.00 0.00 0.00 62 1008.9
20260901012509 69 243 3.5 7.8 0.00 0.00 0.00 62 1009.0
20260901012013 70 186 0.9 7.8 0.00 0.00 0.00 61 1009.0
20260901011526 70 252 4.3 8.7 0.00 0.00 0.00 60 1009.0
20260901011012 70 209 3.5 8.7 0.00 0.00 0.00 61 1009.0
20260901010517 71 200 3.5 8.7 0.00 0.00 0.00 60 1009.1
20260901010030 71 209 2.6 8.7 0.00 0.00 0.00 59 1008.9
20260901005518 71 251 1.7 7.8 0.00 0.00 0.00 60 1009.0
20260901005017 71 255 3.5 7.8 0.00 0.00 0.00 59 1009.0
20260901004535 72 268 4.3 7.8 0.00 0.00 0.00 59 1009.0
20260901004014 72 232 2.6 7.0 0.00 0.00 0.00 59 1009.0
20260901003513 72 229 2.6 6.1 0.00 0.00 0.00 59 1009.0
20260901003037 72 240 1.7 7.8 0.00 0.00 0.00 60 1009.0
20260901002516 72 219 3.5 7.8 0.00 0.00 0.00 59 1009.0
20260901002011 72 267 2.6 7.0 0.00 0.00 0.00 59 1009.1
20260901001522 72 313 2.6 7.0 0.00 0.00 0.00 1009.1
20260901001010 72 269 2.6 7.0 0.00 0.00 0.00 58 1009.3
20260901000511 72 239 1.7 8.7 0.00 0.00 0.00 58 1009.3
20260901000027 73 273 2.6 12.2 0.00 0.00 0.00 58 1009.4
20260831235514 73 293 5.2 12.2 0.00 0.00 0.00 56 1009.4
20260831235014 74 280 4.3 12.2 0.00 0.00 0.00 56 1009.4
20260831234530 74 301 1.7 11.3 0.00 0.00 0.00 56 1009.4
20260831234017 74 234 6.1 9.6 0.00 0.00 0.00 54 1009.4
20260831233503 74 221 2.6 9.6 0.00 0.00 0.00 54 1009.5
20260831233002 75 264 4.3 11.3 0.00 0.00 0.00 53 1009.7
20260831232502 75 234 4.3 11.3 0.00 0.00 0.00 52 1009.7
20260831232002 75 300 4.3 9.6 0.00 0.00 0.00 52 1009.6
20260831231506 75 266 2.6 9.6 0.00 0.00 0.00 52 1009.7
20260831231002 76 242 2.6 7.8 0.00 0.00 0.00 51 1009.7
20260831230502 77 256 2.6 7.0 0.00 0.00 0.00 51 1009.8
20260831230004 77 286 3.5 8.7 0.00 0.00 0.00 50 1009.9
20260831225503 77 334 4.3 8.7 0.00 0.00 0.00 50 1010.0